Погода в Бабушкине

Погода в Бабушкине : погода сейчас, прогноз погоды и архив. Всё, что Вы хотите узнать о погоде в Бабушкине!

Поиск расширенной информации на нашем сайте:

Другие новости

Новости СМИ2

Главная страница сайта

Новости сайта

03.07.2017

Напоминаем, что на нашем специализированном сайте Метеоцентр.Азия вы можете получить высокодетализированные автоматические прогнозы погоды по пунктам России, СНГ и мира в авиационном формате (включающие направление и скорость ветра, видимость, явления погоды, количество и форму облачности, нижнюю и верхнюю границу облачности).

Рекомендуем: укладка плитки под ключ, Стоимость укладки тротуарной плитки Москв

Погода в Бабушкине - сегодня

Время (UTC), дата Ветер
(°,м/с) 
Видим.   Явления Облачность Т
(°С)
Тd
(°С)
f(%) Тe
(°С)
Pmin
(гПа)
dP
(гПа)
Po
(мм)
O2
(г/м3)
Тmin Tmax R s Состояние
почвы
03 18.04.18 310 (СЗ) 20000 м    9/0 средняя, верхняя 
[Ac trans|Ci sp]
+3 -1.6 72 +4  1007.1  -1  713  284           
09 18.04.18 300 (СЗ) 7{14}  20000 м    9/3 600 м кучево-дожд., средняя, верхняя 
[Cb cap|Ac trans|Ci sp]
+9.2 +1.5 59 +7  1009.8  1.9  716  279           
15 18.04.18 300 (СЗ) 20000 м    10/3 600 м кучево-дожд., средняя 
[Cb cap|Ac As]
+3.7 -0.1 76 +5  1015.8  2.5  720  286           
18 18.04.18 240 (ЮЗ) 20000 м    10/0 средняя 
[Ac und]
+2.6 -0.2 82 +3  1015.4  -0.6  719  287           
21 18.04.18 тихо ()   20000 м    10/0 средняя 
[Ac und]
+0.8 -1.7 83 +1  1015.3  -0.5  719  289           
06 19.04.18 360 (С) 4000 м  слаб. снег  10/0 средняя 
[As op]
+0 -0 100 -1  1019  1.2  721  291           
09 19.04.18 310 (СЗ) 20000 м  {снег}  9/4 600 м верхняя 
[Sc|Ci sp]
+0.5 -1 90 1019.8  0.8  722  290           
15 19.04.18 тихо ()   20000 м    9/0 средняя, верхняя 
[Ac trans|Ci sp]
-2.6 -3.1 96 -3  1021.3  0.5  723  294           
18 19.04.18 280 (З) 20000 м    9/0 средняя, верхняя 
[Ac trans|Ci sp]
-0.7 -3.5 81 1021.1  0.2  723  292           
21 19.04.18 тихо ()   20000 м    9/0 средняя, верхняя 
[Ac trans|Ci sp]
-4.2 -4.5 98 -4  1022.5  0.6  723  296           
03 20.04.18 310 (СЗ) 4000 м  дымка  6/3 300 м верхняя 
[St|Ci sp]
-2 -2.7 95 -3  1023.1  -1  724  294           
06 20.04.18 320 (СЗ) 20000 м    8/0 верхняя 
[Ci sp]
+2.2 -1.2 78 +3  1020.5  -1.6  723  289           
09 20.04.18 200 (Ю) 20000 м    9/0 верхняя 
[Ci fib]
+4.7 -1.6 64 +4  1018.5  -1.4  722  286           
15 20.04.18 300 (СЗ) 20000 м    9/0 верхняя 
[Ci sp]
-1.5 -3.8 84 -3  1020.8  722  293           
18 20.04.18 300 (СЗ) 20000 м    9/0 верхняя 
[Ci sp]
-2.8 -4.4 89 -2  1021.3  0.2  723  295           
21 20.04.18 300 (СЗ) 20000 м    9/5 600 м кучево-дожд., верхняя 
[Cb cap|Ci sp]
-3.1 -4.3 91 -7  1023.3  1.8  724  295           
03 21.04.18 160 (Ю) 20000 м    4/0 средняя, верхняя 
[Ac trans|Ci fib]
+4.1 -7.4 43 +3  1026.4  1.3  727  289           
06 21.04.18 310 (СЗ) 20000 м    8/0 верхняя 
[Ci fib]
+4.7 -4.3 52 +4  1026.2  0.1  727  288           
09 21.04.18 300 (СЗ) 20000 м    1/0 верхняя 
[Ci sp]
+5.1 -0.1 69 +4  1025.3  -0.7  727  287           
15 21.04.18 260 (З) 20000 м    3/0 верхняя 
[Ci sp]
+2.5 -1.5 75 1027.3  1.1  728  291           
18 21.04.18 270 (З) 20000 м    3/0 верхняя 
[Ci sp]
+2.3 -2.1 73 +2  1026.7  -0.6  727  291           
21 21.04.18 310 (СЗ) 20000 м    1/0 верхняя 
[Ci sp]
-1.7 -3.2 89 -1  1027.7  -0.1  727  295           
03 22.04.18 220 (ЮЗ) 20000 м    9/0 средняя, верхняя 
[Ac trans|Ci sp]
+7.4 -0.3 58 +8  1025.7  -0.3  727  285           
06 22.04.18 160 (Ю) 20000 м    9/1 600 м средняя, верхняя 
[Sc|Ac trans|Ci sp]
+6.7 -0.2 61 +7  1023.8  -1.8  726  285           
09 22.04.18 210 (ЮЗ) 20000 м    9/0 средняя, верхняя 
[Ac trans|Ci sp]
+6.2 -0.1 64 +6  1021.1  -2.7  724  285           
Время (UTC), дата Ветер
(°,м/с) 
Видим.   Явления Облачность Т
(°С)
Тd
(°С)
f(%) Тe
(°С)
Pmin
(гПа)
dP
(гПа)
Po
(мм)
O2
(г/м3)
Тmin Tmax R s Состояние
почвы

Для получения пояснительной информации подведите курсор к названию столбца.

ПОГОДА в Бабушкине - архив

Всё, что Вы хотите узнать о погоде в Бабушкине - удобно и подробно!

Выберите нужную дату (начиная с 1 января 2015* года) и нажмите кнопку "Найти".
Будут отображены архивные сводки погоды по пункту Бабушкин, начиная с указанной даты.


Отображать данные в формате CSV (для использования в таблицах Excel)


Внимание! Наш архив погоды предназначен исключительно для личного некоммерческого использования в познавательных целях. Если Вам необходимы официальные справки о состоянии погоды (для производственных, юридических, коммерческих и т.п. целей), обращайтесь в органы Росгидромета.

*Примечание: данная дата относится к архиву по метеостанциям СССР (Россия, СНГ, Балтия).
Архив по метеостанциям Зарубежной Европы и Азии (кроме Китая) хранится 10 дней, по другим регионам земного шара (Китай, Африка, Америка, Австралия, Океания) - 1 день.

Бабушкин - район местоположения метеостанции


Название, широта, долгота, высота метеостанции:
Бабушкин 51.7°ш. 105.9°д. 467 м над ур. моря [Российская Федерация]

Дополнительная информация

В oтличие oт бoльшинства пoгoдных сайтoв мы публикуем пoдрoбную метеoинфoрмацию в детальнoм прoфессиoнальнoм фoрмате.

Характеристики температуры и влажнoсти вoздуха измеряются на высoте 2 м в тени вдали oт зданий и деревьев.
Скoрoсть ветра измеряется на высoте 10 м (на урoвне рoста челoвека скoрoсть ветра ниже в 1.5-2 раза). Если метеoстанция нахoдится в гoрoде или в лесу, тo скoрoсть ветра занижена на 2-4 м/с пo сравнению с oткрытым местoм. Скoрoсть ветра над акватoриями крупных рек и oзёр, а также на вершинах хoлмoв на 2-5 м/с выше, чем в oбычных услoвиях.
Атмoсфернoе давление в разных тoчках местнoсти мoжет значительнo oтличаться oт давления на метеoстанции, в зависимoсти oт услoвий рельефа (при пoдъёме на 10 м давление пoнижается примернo на 1 мм рт.ст.).